Windom, MN

3:44 AM CDT on April 27, 2017 (GMT -0500)
Windom Municipal

Weather History for KMWM - October, 2011

Change the Weather History Date:

Saturday, October 15, 2011

  Actual Average Record
Temperature  
Mean Temperature 52 °F -  
Max Temperature 64 °F 59 °F 87 °F (1958)
Min Temperature 39 °F 36 °F 20 °F (1955)
Degree Days  
Heating Degree Days 14    
Growing Degree Days 2 (Base 50)    
Moisture  
Dew Point 37 °F    
Average Humidity 66    
Maximum Humidity 100    
Minimum Humidity 30    
Precipitation  
Precipitation 0.00 in - - ()
Sea Level Pressure  
Sea Level Pressure 29.91 in    
Wind  
Wind Speed 9 mph (West)    
Max Wind Speed 15 mph    
Max Gust Speed 24 mph    
Visibility 10 miles    
Events      
Averages and records for this station are not official NWS values.
T = Trace of Precipitation, MM = Missing Value Source: NWS Daily Summary

Daily Weather History Graph

Daily Weather History Graph

Search for Another Location

Airport or City:

Trip Planner

Search our weather history database for the weather conditions in past years. The results will help you decide how hot, cold, wet, or windy it might be!

Date:

Astronomy

Oct. 15, 2011 Rise Set
Actual Time 7:34 AM CDT 6:37 PM CDT
Civil Twilight 7:05 AM CDT 7:06 PM CDT
Nautical Twilight 6:32 AM CDT 7:39 PM CDT
Astronomical Twilight 5:58 AM CDT 8:12 PM CDT
Moon 8:26 PM CDT (10/15) 11:07 AM CDT (10/15)
Length of Visible Light 12h 00m
Length of Day
11h 02m
Waning Gibbous, 89% of the Moon is Illuminated
Oct 15
Waning Gibbous
Oct 19
Last Quarter
Oct 26
New
Nov 2
First Quarter
Nov 10
Full

Hourly Weather History & Observations

Time (CDT) Temp. Windchill Dew Point Humidity Pressure Visibility Wind Dir Wind Speed Gust Speed Precip Events Conditions
12:12 AM 44.6 °F 39.7 °F 42.8 °F 93% 29.91 in 10.0 mi West 9.2 mph - N/A   Clear
12:32 AM 44.6 °F 40.2 °F 42.8 °F 93% 29.91 in 10.0 mi West 8.1 mph - N/A   Clear
12:53 AM 44.6 °F 39.7 °F 42.8 °F 93% 29.91 in 10.0 mi West 9.2 mph - N/A   Clear
1:12 AM 42.8 °F 37.5 °F 41.0 °F 93% 29.91 in 10.0 mi West 9.2 mph - N/A   Clear
1:32 AM 42.8 °F 37.5 °F 41.0 °F 93% 29.91 in 10.0 mi West 9.2 mph - N/A   Clear
1:53 AM 42.8 °F 38.0 °F 41.0 °F 93% 29.91 in 10.0 mi West 8.1 mph - N/A   Clear
2:12 AM 42.8 °F 37.0 °F 39.2 °F 87% 29.91 in 10.0 mi West 10.4 mph - N/A   Clear
2:32 AM 42.8 °F 37.5 °F 39.2 °F 87% 29.92 in 10.0 mi West 9.2 mph - N/A   Clear
2:52 AM 42.8 °F 37.0 °F 39.2 °F 87% 29.92 in 10.0 mi West 10.4 mph - N/A   Clear
3:12 AM 42.8 °F 37.5 °F 39.2 °F 87% 29.93 in 10.0 mi West 9.2 mph - N/A   Clear
3:32 AM 41.0 °F 35.2 °F 39.2 °F 93% 29.92 in 10.0 mi West 9.2 mph - N/A   Clear
3:53 AM 39.2 °F 33.0 °F 39.2 °F 100% 29.92 in 10.0 mi WSW 9.2 mph - N/A   Clear
4:12 AM 39.2 °F 33.0 °F 39.2 °F 100% 29.92 in 10.0 mi WSW 9.2 mph - N/A   Clear
4:53 AM 41.0 °F 35.2 °F 39.2 °F 93% 29.93 in 10.0 mi West 9.2 mph - N/A   Clear
5:12 AM 41.0 °F 34.7 °F 39.2 °F 93% 29.94 in 10.0 mi West 10.4 mph - N/A   Clear
5:32 AM 41.0 °F 35.2 °F 39.2 °F 93% 29.94 in 10.0 mi West 9.2 mph - N/A   Clear
5:53 AM 39.2 °F 32.5 °F 39.2 °F 100% 29.94 in 10.0 mi West 10.4 mph - N/A   Clear
6:12 AM 39.2 °F 32.0 °F 39.2 °F 100% 29.94 in 10.0 mi West 11.5 mph - N/A   Clear
6:32 AM 39.2 °F 33.0 °F 37.4 °F 93% 29.94 in 10.0 mi West 9.2 mph - N/A   Clear
6:53 AM 41.0 °F 35.2 °F 39.2 °F 93% 29.94 in 10.0 mi West 9.2 mph - N/A   Clear
7:12 AM 39.2 °F 33.0 °F 37.4 °F 93% 29.94 in 10.0 mi West 9.2 mph - N/A   Clear
7:32 AM 39.2 °F 33.6 °F 37.4 °F 93% 29.94 in 10.0 mi West 8.1 mph - N/A   Clear
8:12 AM 39.2 °F 33.0 °F 39.2 °F 100% 29.95 in 10.0 mi West 9.2 mph - N/A   Clear
8:32 AM 42.8 °F 38.0 °F 39.2 °F 87% 29.95 in 10.0 mi West 8.1 mph - N/A   Clear
8:52 AM 44.6 °F 40.2 °F 39.2 °F 81% 29.95 in 10.0 mi West 8.1 mph - N/A   Clear
9:32 AM 48.2 °F - 42.8 °F 82% 29.96 in 10.0 mi West 10.4 mph - N/A   Clear
9:52 AM 51.8 °F - 42.8 °F 71% 29.95 in 10.0 mi West 10.4 mph - N/A   Clear
10:12 AM 53.6 °F - 41.0 °F 62% 29.96 in 10.0 mi West 12.7 mph - N/A   Clear
10:33 AM 53.6 °F - 39.2 °F 58% 29.96 in 10.0 mi WNW 12.7 mph - N/A   Clear
10:52 AM 55.4 °F - 39.2 °F 54% 29.96 in 10.0 mi West 15.0 mph - N/A   Clear
11:11 AM 57.2 °F - 37.4 °F 48% 29.95 in 10.0 mi WNW 15.0 mph - N/A   Clear
11:33 AM 57.2 °F - 37.4 °F 48% 29.94 in 10.0 mi West 10.4 mph 17.3 mph N/A   Clear
11:52 AM 59.0 °F - 37.4 °F 45% 29.94 in 10.0 mi West 11.5 mph - N/A   Clear
12:33 PM 60.8 °F - 37.4 °F 42% 29.93 in 10.0 mi West 8.1 mph - N/A   Clear
12:52 PM 60.8 °F - 37.4 °F 42% 29.92 in 10.0 mi West 13.8 mph 24.2 mph N/A   Clear
1:12 PM 62.6 °F - 37.4 °F 39% 29.91 in 10.0 mi WNW 12.7 mph 17.3 mph N/A   Clear
1:33 PM 62.6 °F - 37.4 °F 39% 29.90 in 10.0 mi West 12.7 mph 17.3 mph N/A   Clear
1:52 PM 64.4 °F - 33.8 °F 32% 29.88 in 10.0 mi WSW 12.7 mph 18.4 mph N/A   Clear
2:12 PM 64.4 °F - 32.0 °F 30% 29.87 in 10.0 mi West 8.1 mph - N/A   Clear
2:32 PM 64.4 °F - 33.8 °F 32% 29.86 in 10.0 mi WNW 8.1 mph 19.6 mph N/A   Clear
2:52 PM 62.6 °F - 33.8 °F 34% 29.86 in 10.0 mi West 6.9 mph - N/A   Clear
3:12 PM 62.6 °F - 33.8 °F 34% 29.85 in 10.0 mi SW 11.5 mph - N/A   Clear
3:32 PM 62.6 °F - 30.2 °F 30% 29.85 in 10.0 mi West 12.7 mph - N/A   Clear
3:52 PM 62.6 °F - 32.0 °F 32% 29.84 in 10.0 mi WSW 8.1 mph - N/A   Clear
4:12 PM 64.4 °F - 32.0 °F 30% 29.84 in 10.0 mi WSW 9.2 mph - N/A   Clear
4:32 PM 64.4 °F - 32.0 °F 30% 29.84 in 10.0 mi SW 6.9 mph - N/A   Clear
5:12 PM 64.4 °F - 32.0 °F 30% 29.85 in 10.0 mi WSW 8.1 mph - N/A   Clear
5:33 PM 62.6 °F - 30.2 °F 30% 29.84 in 10.0 mi West 9.2 mph - N/A   Clear
5:52 PM 62.6 °F - 32.0 °F 32% 29.84 in 10.0 mi West 5.8 mph - N/A   Clear
6:13 PM 60.8 °F - 33.8 °F 36% 29.84 in 10.0 mi WNW 3.5 mph - N/A   Clear
6:32 PM 60.8 °F - 33.8 °F 36% 29.84 in 10.0 mi NW 3.5 mph - N/A   Clear
6:52 PM 57.2 °F - 35.6 °F 44% 29.84 in 10.0 mi NNW 5.8 mph - N/A   Scattered Clouds
7:13 PM 57.2 °F - 35.6 °F 44% 29.84 in 10.0 mi NNW 4.6 mph - N/A   Mostly Cloudy
7:32 PM 57.2 °F - 35.6 °F 44% 29.85 in 10.0 mi North 3.5 mph - N/A   Mostly Cloudy
7:52 PM 57.2 °F - 35.6 °F 44% 29.84 in 10.0 mi North 4.6 mph - N/A   Scattered Clouds
8:13 PM 57.2 °F - 37.4 °F 48% 29.82 in 10.0 mi NE 4.6 mph - N/A   Scattered Clouds
8:32 PM 55.4 °F - 37.4 °F 51% 29.82 in 10.0 mi NE 5.8 mph - N/A   Scattered Clouds
8:51 PM 51.8 °F - 37.4 °F 58% 29.83 in 10.0 mi North 6.9 mph - N/A   Scattered Clouds
9:12 PM 51.8 °F - 42.8 °F 71% 29.84 in 10.0 mi North 11.5 mph - N/A   Scattered Clouds
9:32 PM 51.8 °F - 44.6 °F 76% 29.83 in 10.0 mi NNE 8.1 mph - N/A   Mostly Cloudy
9:53 PM 51.8 °F - 44.6 °F 76% 29.84 in 10.0 mi NNE 6.9 mph - N/A   Mostly Cloudy
10:12 PM 51.8 °F - 44.6 °F 76% 29.85 in 10.0 mi North 4.6 mph - N/A   Overcast
10:32 PM 51.8 °F - 44.6 °F 76% 29.85 in 10.0 mi North 3.5 mph - N/A Rain Light Rain
10:52 PM 51.8 °F - 46.4 °F 82% 29.88 in 10.0 mi NW 3.5 mph - N/A Rain Light Rain
11:12 PM 51.8 °F - 46.4 °F 82% 29.85 in 10.0 mi NNE 4.6 mph - N/A Rain Light Rain
11:33 PM 50.0 °F - 46.4 °F 87% 29.85 in 10.0 mi NE 4.6 mph - N/A Rain Light Rain
11:52 PM 50.0 °F - 46.4 °F 87% 29.87 in 10.0 mi NNW 6.9 mph - N/A Rain Light Rain